Location: Squirrel Cove
(50.1074°N, 124.9139°W)
Time: 19:39:39
(UTC-08:00)

Envisat - Pass Details

Date: 01 December 2022
Orbit: 763 x 765 km, 98.2° (Epoch: 05 February)

Event Time Altitude Azimuth Distance (km) Brightness Sun altitude
Rises 05:53:55 0° 6° (N) 3,247 6.2 -18.9°
Reaches altitude 10° 05:56:30 10° 355° (N) 2,316 5.3 -18.5°
Enters shadow 05:59:47 26° 318° (NW) 1,487 4.0 -18.0°
